Starlink 4724

operational
NORAD ID: 53702 Int'l Des: 2022-107 Owner: SPXS Country: US Constellation: starlink
LEOCIRCULAR

关于 Starlink 4724

正在加载描述...

实时位置

正在加载3D地球...

即将过境

高度历史

Altitude vs Time

uPlot chart will show altitude changes over time

两行轨道根数

1 53702U 22107C 25349.94766824 .00002444 00000-0 17165-3 0 9995
2 53702 53.2165 244.9533 0001368 88.5136 271.6013 15.08834125182457
Epoch: Dec 15, 2025 • Age: 12 hours

当前状态

高度 543.4 km
速度 7.59 km/s
星下点 -12.50°S, 174.16°W
发射日期 Sep 5, 2022
运行时间 3.2 years
类型 internet

技术详情

分类 Payload
质量 305.00 kg
干质量 290.00 kg
总质量 305.00 kg
长度 0.20 m
直径 2.80 m
跨度 9.00 m
形状 Box + pan
制造商 SPXS
平台类型 Starlink
阶段状态 In Orbit
所有者/国家 SPXS/US

大型星座

Loading constellations...